Temp
17 17 17 17 17 17 16 16 16 16 16 16 16 17 17 18 18 19 19 19 18 18 18 18 18 18 17 17 18 18 18 18 19 19 19 19 19 19 19 19 19 18 18 17 18 18 18 19 19 19 18 18 17 17 17 16 16 16 16 15 15 15 15 15 15 15 15 15 15 15 15 15 14 14 14 14 14 14 14 13 13 13 13 12 12 12
16 16 16 16 16 16 16 16 16 16 16 16 16 16 17 17 18 18 18 18 18 18 18 17 17 17 16 16 16 16 17 17 18 18 18 19 19 19 19 19 19 18 18 18 18 18 18 19 19 19 19 18 18 18 17 17 16 16 16 15 15 15 15 15 15 15 15 15 15 15 15 15 14 14 14 14 14 14 14 13 13 13 13 12 12 12
15 15 15 15 15 15 15 16 16 16 16 16 16 16 17 17 17 17 18 18 18 18 18 17 17 16 16 16 15 15 15 16 16 17 17 18 18 18 19 19 18 18 18 18 18 18 19 19 19 19 19 19 18 18 18 17 17 16 16 16 15 15 15 15 15 15 15 15 15 15 15 14 14 14 14 14 14 14 14 13 13 13 13 13 12 12
15 14 14 14 14 15 15 15 16 16 16 16 16 16 16 17 17 17 17 17 17 18 18 18 17 17 16 16 15 15 15 15 15 15 16 16 17 18 18 18 18 18 18 18 18 18 19 19 19 19 19 19 18 18 18 18 17 17 16 16 15 15 15 14 14 15 15 15 15 15 14 14 14 14 14 14 14 14 13 13 13 13 13 13 12 12
14 14 14 14 14 14 15 15 15 15 15 15 16 16 16 16 16 16 17 17 17 17 17 17 17 17 16 16 15 15 15 15 15 15 15 16 17 17 18 18 18 18 18 18 18 18 18 18 19 19 19 19 19 19 18 18 18 18 17 16 16 15 15 14 14 14 14 15 15 15 14 14 14 14 14 14 14 13 13 13 13 13 13 12 12 12
13 13 13 13 14 14 14 15 15 15 14 15 15 15 15 15 15 16 16 16 16 16 16 17 17 17 16 16 16 16 16 16 16 16 16 16 16 17 17 18 18 18 18 18 18 18 18 18 18 18 18 19 19 19 19 18 18 18 18 17 16 15 15 14 14 14 14 14 15 15 14 14 14 14 13 13 13 13 13 13 13 13 13 12 12 12
13 13 13 13 13 14 14 14 14 14 14 14 14 14 14 15 15 15 15 15 15 15 16 16 16 16 16 16 16 16 16 16 16 16 16 16 16 16 17 17 17 17 17 17 17 18 18 18 18 18 18 18 18 18 18 18 18 18 18 17 16 16 15 15 14 14 14 14 14 15 15 14 14 14 13 13 13 13 13 13 13 13 13 12 12 12
13 13 13 13 13 13 14 14 14 14 14 14 14 14 14 14 14 14 14 15 15 15 15 15 15 15 15 15 15 15 16 16 16 16 16 16 16 16 16 16 16 16 16 17 17 17 17 17 18 18 18 18 18 18 18 18 18 18 17 17 16 16 15 15 14 14 14 14 14 14 15 14 14 14 13 13 13 13 13 13 13 13 13 12 12 12
12 13 13 13 13 13 13 13 14 14 14 14 14 14 13 13 13 13 14 14 14 14 14 14 14 14 14 14 14 14 15 15 16 16 16 16 16 16 15 15 15 16 16 16 16 16 17 17 17 17 18 18 18 18 18 17 17 17 16 16 16 16 16 15 15 14 14 14 13 14 14 14 14 14 14 14 13 13 13 13 13 13 12 12 12 12
8 10 11 12 13 13 13 13 13 14 14 14 14 14 14 13 13 13 13 13 13 13 13 13 13 13 13 14 14 14 14 15 15 16 16 16 16 16 15 15 15 15 15 15 15 16 16 16 17 17 17 17 18 18 18 17 16 16 15 16 16 16 16 15 15 15 14 14 14 13 14 14 14 14 14 14 14 13 13 13 13 13 12 12 12 12
6 7 8 10 11 12 13 13 13 13 13 14 14 14 14 14 13 13 13 12 12 13 13 13 13 13 13 13 13 14 14 14 14 15 16 16 16 16 15 15 15 15 15 15 15 15 15 16 16 16 16 17 17 17 17 17 16 15 15 15 16 16 16 15 15 15 15 14 14 14 13 13 14 14 14 14 14 14 13 13 13 13 12 12 12 12
6 6 7 7 9 10 11 12 12 13 13 13 13 13 13 13 13 13 13 13 13 13 12 12 13 13 13 13 13 13 13 13 14 14 14 15 15 15 15 14 14 14 14 14 14 14 15 15 15 15 15 16 16 16 16 16 15 15 15 15 15 15 15 15 15 15 15 14 14 14 13 13 13 14 14 14 14 14 13 13 13 13 13 12 12 12
6 6 6 7 8 8 9 9 10 11 12 12 13 13 13 13 13 13 13 13 13 13 13 13 13 13 13 13 13 13 13 13 13 13 13 14 14 14 14 13 13 13 13 13 14 14 14 14 14 15 15 15 16 16 16 15 15 15 15 15 15 15 15 15 15 15 14 14 14 14 14 13 13 13 13 14 14 14 14 13 13 13 13 12 12 12
5 6 6 7 7 8 8 8 8 9 10 11 11 12 12 12 12 13 13 13 13 13 13 13 13 13 13 13 13 14 13 13 13 13 13 13 13 13 13 13 13 13 13 13 13 13 14 14 14 15 15 15 15 15 15 15 15 15 15 15 15 15 15 15 14 14 14 14 14 14 14 13 13 13 13 13 14 14 14 13 13 13 13 12 12 12
5 5 6 6 7 7 7 7 8 8 8 8 7 7 8 9 10 11 12 12 13 13 13 13 13 13 13 13 13 14 13 13 13 12 12 12 13 13 13 13 13 13 13 13 13 14 14 14 14 14 15 15 14 14 14 14 14 15 15 15 15 15 14 14 14 14 14 14 14 14 13 13 13 12 12 13 13 13 13 13 13 13 13 13 12 12
4 5 5 5 6 6 6 7 7 7 7 6 6 6 6 7 7 8 9 10 11 11 12 13 13 13 13 13 13 13 13 13 13 12 12 12 12 13 13 12 12 12 13 13 13 14 14 14 14 14 14 14 14 14 14 14 14 14 14 15 15 14 14 14 14 13 13 13 13 13 13 13 13 12 12 12 13 13 13 13 13 13 13 12 12 12
4 4 4 5 5 6 6 6 7 6 5 5 5 5 5 6 6 7 7 8 8 9 10 11 12 12 13 13 13 12 13 13 13 12 12 12 12 12 13 12 12 12 12 13 13 14 14 14 14 14 14 14 14 14 14 14 14 14 14 14 14 14 14 13 13 13 13 13 13 13 13 13 12 12 12 12 12 13 13 13 13 13 13 13 12 12
3 3 4 4 5 5 5 6 5 5 4 4 4 4 5 5 6 6 7 7 7 8 9 10 10 11 10 11 11 12 12 12 12 13 12 12 12 12 12 12 12 12 12 13 13 13 13 13 13 13 13 13 13 13 13 13 13 13 13 13 13 13 13 13 13 13 13 13 13 12 12 12 12 12 12 12 12 12 13 12 12 12 12 12 12 12
3 3 4 4 4 4 5 4 4 3 3 3 3 3 4 4 5 5 6 6 7 7 7 8 9 10 10 10 11 11 11 12 12 12 12 12 12 12 12 12 12 12 12 12 13 13 13 13 13 13 13 13 12 12 12 12 12 12 12 12 12 12 12 12 12 12 12 12 12 12 12 12 12 12 12 12 12 12 12 12 12 12 12 12 12 12
3 3 3 3 3 3 3 3 2 2 2 2 3 3 3 4 4 4 5 5 6 6 7 7 8 8 8 8 8 9 10 11 11 12 12 12 12 12 12 12 12 12 12 12 12 12 12 12 12 12 12 12 12 12 12 12 12 12 11 11 11 11 11 12 12 12 12 12 12 12 12 12 12 12 12 12 12 12 12 12 12 12 12 12 12 11
2 2 2 1 1 1 1 1 1 1 1 2 2 2 3 3 3 4 4 4 5 6 6 7 7 7 7 7 7 7 8 9 10 11 11 11 11 11 11 11 11 11 11 11 12 12 12 12 12 12 12 12 12 11 11 11 11 11 11 11 11 11 11 11 11 11 11 11 11 11 11 11 11 11 11 11 12 12 12 12 12 12 12 11 11 11
0 0 -0 -1 -0 -0 0 0 0 1 1 1 2 2 2 3 3 3 3 4 4 5 6 6 6 6 6 7 7 8 8 9 10 10 11 11 10 10 10 10 10 11 11 11 11 11 11 11 11 12 12 12 11 11 11 11 10 10 10 10 10 10 10 11 11 11 11 11 11 11 11 11 11 11 11 11 11 11 11 11 11 11 11 11 11 11
-1 -1 -1 -1 -1 -0 -0 -0 0 0 0 1 1 2 2 2 3 3 3 3 4 4 5 5 6 6 6 7 8 8 9 9 9 10 10 10 10 10 10 10 10 10 10 10 11 11 11 11 11 11 11 11 11 11 11 11 10 10 10 10 10 10 10 10 10 10 10 10 10 11 11 11 11 11 11 11 11 11 11 11 11 11 11 11 11 11
-1 -1 -1 -1 -1 -1 -1 -0 -0 -0 -0 0 1 1 1 2 2 2 3 3 3 4 4 5 5 6 7 7 8 8 9 9 9 9 10 10 10 10 10 10 10 9 10 10 10 10 11 11 11 11 11 11 11 11 11 11 10 10 10 10 10 10 10 10 10 10 10 10 10 10 10 10 11 11 11 11 11 11 11 11 11 11 11 11 11 11
-0 -1 -1 -1 -1 -1 -1 -1 -1 -0 -0 -0 0 1 1 1 2 2 2 2 3 3 4 5 6 6 7 7 8 8 9 9 9 9 9 9 10 9 9 10 9 9 9 9 10 10 10 10 11 11 11 11 11 11 10 10 10 10 10 10 10 10 10 9 9 9 9 10 10 10 10 10 10 11 11 11 11 11 11 11 11 11 11 11 11 11
-0 -0 -0 -0 -1 -1 -1 -1 -1 -1 -0 -0 0 0 1 1 1 2 2 2 3 3 4 5 5 6 7 7 7 8 8 9 9 9 9 9 9 9 9 9 9 9 9 9 9 10 10 10 10 10 10 10 10 10 10 10 10 10 10 10 9 9 9 9 9 9 9 9 9 10 10 10 10 11 11 11 11 11 11 11 11 11 11 11 11 11
-1 -1 -1 -1 -1 -1 -1 -1 -1 -0 -0 -0 0 0 0 1 1 2 2 2 2 3 4 4 5 5 6 6 7 8 8 8 8 9 8 8 9 9 8 9 9 9 8 8 9 9 9 9 9 10 10 10 10 10 10 10 10 10 10 9 9 9 9 9 9 9 9 9 9 9 10 10 10 11 11 11 11 10 10 11 11 11 11 11 10 10
-1 -1 -1 -1 -1 -1 -1 -1 -1 -1 -0 -0 0 0 0 1 1 1 2 2 2 2 3 3 4 4 5 6 6 7 7 7 8 8 8 8 8 8 8 8 8 8 7 8 8 8 8 9 9 9 10 10 10 10 10 10 10 10 10 9 9 9 9 9 9 9 9 9 9 10 10 10 10 10 11 10 10 10 10 10 11 11 11 10 10 10
-1 -1 -1 -1 -1 -1 -1 -1 -1 -1 -1 -0 -0 0 0 0 1 1 1 2 2 2 3 3 3 4 4 5 5 6 6 7 7 7 8 8 8 8 8 8 8 7 7 7 7 8 8 8 8 9 9 9 9 9 9 9 9 9 9 9 9 9 9 9 9 9 9 9 10 10 10 10 10 10 10 10 10 10 10 10 10 10 10 10 10 10
-2 -2 -2 -2 -2 -2 -2 -1 -1 -1 -1 -1 -0 -0 0 0 0 1 1 1 2 2 3 3 3 3 4 4 5 5 6 7 7 7 8 8 8 8 8 8 7 7 7 7 7 7 7 8 8 8 9 9 9 9 9 9 9 9 9 9 9 9 9 9 9 9 9 10 10 10 10 10 10 10 10 10 10 10 10 10 10 10 10 10 10 9
-2 -2 -2 -2 -2 -2 -2 -1 -1 -1 -1 -1 -0 -0 0 0 0 0 0 1 1 2 2 3 3 4 4 4 4 5 6 7 7 7 8 8 8 8 8 8 7 7 7 7 6 6 7 7 7 8 8 8 9 9 9 9 9 9 9 9 9 9 9 9 9 10 10 10 10 10 10 10 10 10 10 10 10 10 10 10 10 10 9 9 9 9
-2 -2 -2 -2 -2 -2 -2 -2 -1 -1 -1 -1 -0 -0 -0 0 0 0 0 1 1 1 2 2 3 4 4 4 5 5 5 6 6 7 7 8 8 8 8 8 7 7 7 7 7 7 6 6 6 7 8 8 9 9 9 9 9 9 9 9 9 9 9 9 10 10 10 10 10 10 10 10 10 10 10 10 10 10 10 10 10 9 9 9 9 9
-2 -2 -2 -2 -2 -2 -2 -2 -2 -1 -1 -1 -1 -0 -0 -0 0 0 0 1 1 1 1 1 2 3 4 4 5 5 5 6 6 6 6 7 7 7 8 8 7 7 6 6 7 7 6 6 6 7 8 8 9 9 9 9 9 8 8 8 9 9 9 9 9 9 9 9 9 9 10 10 10 10 10 10 10 10 10 9 9 9 9 9 8 8
-2 -2 -2 -2 -2 -2 -2 -2 -2 -2 -1 -1 -1 -1 -1 -0 -0 -0 0 0 1 1 1 1 1 2 3 3 4 5 5 6 6 6 6 6 7 7 7 7 7 6 6 6 6 6 6 6 7 7 7 8 8 9 9 9 9 8 8 8 8 9 9 9 9 9 9 9 9 9 9 9 9 10 10 10 10 9 9 9 9 9 9 9 8 8
-2 -2 -2 -2 -2 -2 -2 -2 -2 -2 -2 -2 -1 -1 -1 -1 -1 -1 -1 -0 -0 0 0 1 1 1 1 2 2 3 4 4 5 6 6 6 7 7 7 7 7 6 6 6 5 5 5 5 6 7 7 7 7 8 8 9 9 8 8 8 8 9 9 9 9 9 9 9 9 9 9 9 9 9 9 9 9 9 9 9 9 9 9 9 9 8
-2 -2 -2 -2 -2 -2 -2 -2 -2 -2 -2 -2 -2 -2 -2 -2 -2 -2 -1 -1 -1 -0 -0 0 0 0 1 1 1 1 2 2 2 3 4 5 6 7 7 7 7 7 6 6 6 6 5 5 6 6 7 7 7 7 8 8 8 8 8 8 8 8 9 9 9 9 9 9 9 9 9 9 9 9 9 9 9 9 9 9 9 8 9 9 9 9
-2 -2 -2 -2 -2 -2 -2 -2 -2 -2 -2 -2 -2 -2 -2 -2 -2 -2 -2 -1 -1 -1 -1 -0 -0 0 0 0 0 1 1 1 1 2 2 3 5 6 7 7 7 7 7 6 6 6 6 6 6 6 6 6 6 7 7 8 8 8 8 8 8 8 9 9 9 9 9 9 9 8 8 8 8 8 8 8 8 9 9 9 9 8 8 9 9 9
-2 -2 -2 -2 -2 -2 -2 -2 -2 -2 -2 -2 -3 -3 -3 -2 -2 -2 -2 -2 -1 -1 -1 -1 -1 -0 0 0 0 0 1 1 2 2 2 2 3 4 6 7 7 7 7 7 7 6 6 6 6 6 6 6 7 7 7 7 7 7 8 8 8 8 8 8 9 9 9 9 8 8 8 8 8 8 8 8 8 8 8 8 8 8 8 8 8 9
-2 -2 -2 -2 -2 -2 -2 -2 -2 -2 -3 -3 -3 -3 -2 -2 -2 -2 -2 -2 -2 -2 -2 -1 -1 -1 -0 0 0 0 1 1 2 2 3 3 3 4 5 6 6 6 6 6 7 7 7 7 7 6 6 6 7 7 7 7 7 7 7 7 8 8 8 8 8 8 8 8 8 8 8 8 8 8 7 7 7 7 7 7 7 7 7 7 7 7
-2 -2 -2 -2 -2 -2 -2 -3 -3 -3 -3 -3 -2 -2 -2 -2 -2 -2 -2 -2 -2 -2 -2 -2 -1 -1 -1 -0 -0 0 1 1 2 2 3 3 4 4 4 5 6 6 6 6 6 6 6 7 7 7 7 7 7 7 6 6 6 7 7 7 7 7 8 8 8 8 8 8 8 8 8 8 7 7 7 7 7 7 7 7 6 7 7 6 6 6
-3 -2 -2 -3 -3 -3 -3 -3 -3 -3 -3 -3 -2 -2 -2 -2 -2 -2 -2 -2 -2 -2 -2 -2 -2 -1 -1 -0 -0 0 1 1 2 2 3 3 4 4 4 5 5 6 6 6 6 6 6 7 7 7 7 7 7 7 6 6 6 6 6 6 7 7 7 8 8 8 8 8 8 8 8 7 7 7 7 7 7 7 7 6 6 6 6 6 6 6
-3 -3 -3 -3 -3 -3 -3 -3 -3 -3 -3 -3 -3 -2 -2 -2 -2 -2 -2 -2 -2 -2 -2 -2 -2 -1 -1 -1 -0 0 1 1 2 2 3 3 4 4 4 4 5 5 6 6 6 6 6 6 7 7 7 7 7 7 6 6 6 6 6 6 7 7 7 7 7 7 8 7 7 7 7 7 7 7 7 6 6 7 6 6 6 6 6 6 6 6
-3 -3 -3 -3 -3 -3 -3 -3 -3 -3 -3 -3 -3 -3 -2 -2 -2 -2 -2 -2 -2 -2 -2 -2 -2 -1 -1 -0 0 1 1 2 2 2 3 3 4 4 4 4 5 5 5 5 5 5 6 6 6 7 7 7 7 7 6 6 5 6 6 6 6 6 6 6 7 7 7 7 7 7 7 7 7 7 6 6 6 6 6 6 6 6 6 6 6 6
-4 -4 -4 -4 -4 -4 -4 -4 -3 -3 -3 -3 -3 -3 -3 -2 -2 -2 -2 -2 -2 -2 -2 -2 -2 -1 -1 -0 0 1 1 2 2 2 3 3 3 4 4 4 5 5 5 5 5 5 5 6 6 6 6 7 7 6 6 6 5 5 5 6 6 6 6 6 6 7 7 7 7 7 7 7 7 6 6 6 6 6 6 6 6 6 6 6 6 6
-5 -5 -5 -5 -5 -4 -4 -4 -4 -4 -3 -3 -3 -3 -3 -3 -3 -3 -2 -2 -2 -2 -2 -2 -1 -1 -1 -0 0 1 1 1 1 2 2 3 3 3 4 4 4 5 5 5 5 5 5 5 6 6 6 6 6 6 6 6 5 5 5 6 6 6 6 7 6 6 6 6 6 6 6 6 6 6 6 6 6 5 5 5 5 5 5 5 5 5
-5 -5 -5 -5 -5 -5 -5 -5 -4 -4 -4 -4 -3 -3 -3 -3 -3 -3 -3 -2 -2 -2 -2 -2 -1 -1 -1 -0 0 0 1 1 1 2 2 2 3 3 3 4 4 4 5 5 5 5 5 5 5 6 6 6 6 6 6 6 6 5 5 5 6 6 6 6 6 6 6 6 6 6 6 6 6 6 6 6 5 5 5 5 5 5 5 5 5 5
-6 -6 -6 -6 -5 -5 -5 -5 -5 -4 -4 -4 -4 -4 -4 -3 -3 -3 -3 -3 -2 -2 -2 -2 -2 -1 -1 -1 -0 -0 0 1 1 1 2 2 2 3 3 3 3 4 4 4 4 4 5 5 5 6 6 6 6 6 6 6 6 5 5 5 5 6 6 6 6 6 6 6 6 6 6 6 6 6 5 5 5 5 5 5 5 5 5 5 5 5
-6 -6 -6 -6 -6 -5 -5 -5 -5 -5 -5 -4 -4 -4 -4 -4 -4 -3 -3 -3 -3 -3 -2 -2 -2 -2 -2 -1 -1 -1 -0 -0 0 1 1 1 2 2 3 3 3 3 3 4 4 4 4 5 5 5 5 5 6 6 6 5 5 5 5 5 5 5 5 5 5 6 6 6 6 6 6 6 5 5 5 5 5 5 5 5 5 5 5 5 5 4
-6 -6 -6 -6 -6 -6 -5 -5 -5 -5 -5 -5 -5 -5 -5 -4 -4 -4 -4 -3 -3 -3 -3 -2 -2 -2 -2 -2 -2 -1 -1 -1 -0 0 0 1 1 2 2 3 3 3 3 3 4 4 4 4 5 5 5 5 5 6 6 5 5 5 5 5 5 5 5 5 5 5 5 5 6 5 5 5 5 5 5 5 5 5 4 4 4 4 5 5 4 4
-6 -6 -6 -6 -6 -6 -6 -5 -5 -5 -5 -5 -5 -5 -5 -5 -4 -4 -4 -4 -3 -3 -3 -2 -2 -2 -2 -2 -2 -1 -1 -1 -0 0 0 1 1 2 2 2 3 3 3 3 3 4 4 4 4 4 5 5 5 5 5 5 5 5 5 5 5 5 5 5 5 5 5 5 5 5 5 5 5 5 5 5 5 4 4 4 4 4 4 4 4 4
-7 -6 -6 -6 -6 -6 -6 -6 -6 -5 -5 -5 -5 -5 -5 -5 -5 -5 -4 -4 -4 -3 -3 -3 -2 -2 -2 -2 -2 -1 -1 -1 -0 -0 0 1 1 1 2 2 2 3 3 3 4 4 4 4 4 4 4 5 5 5 5 5 5 5 5 5 5 5 5 5 5 5 5 5 5 5 5 5 5 5 5 5 5 5 4 4 4 4 4 4 4 4
Height
715 716 717 717 717 717 717 717 718 719 719 720 721 722 723 724 724 725 727 728 730 732 733 734 736 737 738 740 741 742 742 743 743 744 744 745 746 747 748 748 749 750 751 751 752 752 752 752 752 753 755 756 757 758 759 760 761 762 763 764 766 767 768 769 770 771 771 772 773 774 776 777 778 779 780 781 782 783 785 786 787 789 790 791 792 793
713 714 715 716 716 716 716 717 717 717 717 718 718 719 720 721 722 723 724 726 727 729 730 731 732 734 735 736 738 739 740 742 742 743 744 744 745 746 746 747 747 748 748 749 749 750 750 750 751 751 752 753 754 755 756 757 758 759 760 761 762 763 765 766 767 767 768 769 770 772 773 774 774 775 776 777 779 780 782 783 785 787 787 789 790 791
710 711 712 712 714 714 714 715 715 716 716 716 717 717 718 719 720 720 722 723 724 726 727 727 728 729 731 732 733 735 737 739 740 742 742 743 744 744 745 745 745 745 746 747 747 747 748 748 749 749 750 750 751 752 753 754 755 756 757 758 759 760 761 763 764 765 766 767 768 770 770 771 772 772 773 775 776 777 779 781 782 784 785 787 788 789
707 707 708 709 711 711 712 712 713 713 714 715 716 716 717 717 718 718 719 721 722 723 723 724 725 726 727 728 729 731 733 735 737 738 740 741 741 742 742 742 742 742 743 744 744 745 746 747 747 747 747 748 749 749 750 751 752 753 754 755 756 757 758 759 761 762 763 765 766 767 768 769 770 771 771 772 773 774 776 778 780 781 782 784 786 787
704 705 705 707 708 708 708 709 710 711 712 713 714 715 715 716 716 717 717 719 720 720 721 721 722 722 723 724 725 727 728 730 732 734 736 737 737 738 738 738 739 739 740 741 741 742 743 744 745 745 746 746 746 747 748 749 749 750 751 752 752 753 755 756 757 759 760 762 763 764 765 767 768 769 770 771 772 772 773 775 777 778 780 781 783 785
702 702 703 704 705 705 706 706 707 708 709 711 712 712 713 713 713 714 715 716 717 717 717 718 718 719 720 720 722 723 724 726 728 729 731 732 733 734 735 735 736 736 737 737 738 739 740 741 742 742 743 743 744 744 745 746 747 747 748 748 749 750 751 753 754 756 757 758 759 760 762 764 765 767 768 769 770 771 772 772 773 775 777 778 780 782
701 701 702 702 702 702 703 703 704 705 706 707 708 709 710 710 711 711 712 712 713 714 714 715 716 716 717 717 718 719 721 722 724 725 727 728 729 730 731 732 732 733 734 735 735 736 736 737 738 739 740 741 741 742 742 743 744 744 745 746 746 747 748 749 751 752 753 755 756 757 759 761 762 764 765 767 768 769 770 770 771 772 773 775 777 779
700 700 700 700 700 700 701 701 701 702 703 704 705 706 707 707 707 708 708 709 710 711 712 712 713 713 713 714 715 716 717 719 720 721 722 723 725 726 727 728 729 730 731 732 732 732 732 733 734 735 736 737 738 739 739 740 741 742 742 742 743 744 745 746 747 749 750 752 753 755 756 757 759 760 762 763 765 767 767 768 769 770 771 772 773 776
701 700 699 698 698 698 698 698 698 699 700 701 702 703 703 704 704 705 705 706 707 707 709 709 710 710 710 711 712 713 714 715 716 717 718 719 720 721 723 724 725 727 727 728 729 729 729 729 730 731 732 733 734 735 736 737 738 739 739 740 740 741 742 743 744 746 747 748 750 752 753 754 755 757 758 760 762 763 765 767 768 769 769 770 771 773
703 702 700 699 698 697 697 696 696 696 697 698 699 700 700 701 702 702 703 703 703 704 705 706 707 707 707 708 709 710 711 712 712 713 714 714 715 717 718 720 722 722 723 724 725 725 726 726 726 727 727 728 730 731 732 734 735 736 737 737 737 738 739 740 742 742 744 745 747 748 750 752 752 753 755 757 759 761 762 764 766 767 767 768 769 771
706 704 703 701 699 698 697 695 694 694 695 696 697 697 698 698 699 700 700 700 700 701 702 703 703 704 705 705 706 707 708 709 709 710 710 711 712 713 715 716 717 718 719 720 721 722 722 722 723 723 724 725 726 727 729 731 732 733 733 734 734 735 736 737 738 740 741 742 743 745 747 748 750 751 752 753 755 757 759 761 762 764 765 766 767 768
708 707 706 704 702 700 698 696 695 694 694 695 695 695 695 695 695 696 696 696 696 697 699 699 700 700 701 702 703 704 705 706 706 707 707 708 709 710 711 712 713 714 715 716 717 718 718 719 719 720 721 721 722 723 725 727 728 729 730 731 731 732 733 734 736 737 737 739 740 742 743 745 747 748 749 750 751 753 755 757 759 761 762 762 764 765
709 708 707 706 705 703 701 698 696 694 694 694 694 693 693 692 693 693 692 692 692 693 694 695 696 696 697 698 700 701 702 703 703 704 704 705 705 706 707 708 709 710 711 712 713 714 714 715 716 717 717 718 719 720 722 723 724 726 727 727 728 729 730 731 732 733 735 736 737 738 740 741 743 745 746 747 748 749 751 752 755 757 758 759 760 762
710 709 709 707 706 705 703 701 699 697 696 696 696 695 694 693 693 692 691 690 690 691 692 692 692 692 693 694 696 697 699 700 700 701 701 701 702 702 703 704 705 706 707 708 709 709 711 712 712 712 713 715 716 717 719 720 721 722 723 724 725 726 727 728 729 730 731 732 733 735 736 738 740 742 743 744 745 746 747 749 751 753 755 756 757 759
712 711 710 709 707 706 705 703 701 699 699 698 698 697 696 695 693 692 691 690 690 690 691 690 689 689 689 690 691 692 694 696 697 698 698 697 697 698 700 701 701 702 703 704 704 705 707 707 708 709 710 711 712 714 716 717 718 719 721 722 722 723 724 725 726 727 728 729 730 732 733 734 736 737 739 741 742 743 744 745 747 750 752 753 754 756
712 712 711 710 709 707 706 704 702 701 700 700 699 699 698 697 696 694 693 692 691 690 690 689 687 687 686 686 686 688 690 692 693 693 694 693 693 694 696 697 698 698 699 700 700 701 703 704 705 706 707 708 709 711 712 714 715 716 717 718 719 720 721 722 723 724 725 726 727 728 730 731 732 734 736 737 739 740 741 742 744 746 748 750 752 753
713 712 712 711 709 707 706 704 703 702 702 701 701 700 700 699 698 696 695 693 692 691 690 689 687 686 684 683 684 685 686 687 688 689 689 689 689 690 692 693 694 694 695 696 696 697 699 700 701 702 703 705 706 708 709 710 712 713 714 715 716 717 718 719 720 721 722 723 724 725 727 728 729 731 732 734 736 737 738 739 740 742 744 746 748 750
713 712 711 710 708 707 705 704 704 703 703 703 702 701 700 699 698 697 696 694 692 691 691 690 689 687 686 684 683 683 683 684 684 684 685 685 685 686 688 689 690 691 691 692 693 694 695 696 697 699 700 701 703 704 706 707 708 709 710 711 712 713 714 715 717 717 719 720 721 722 723 725 726 728 729 731 733 734 735 736 737 739 740 742 744 747
712 712 711 709 708 707 707 706 706 706 706 705 703 702 700 699 698 697 696 695 693 692 692 691 691 689 688 687 686 685 684 683 682 681 681 681 682 682 684 686 687 687 688 688 689 690 692 693 694 695 697 698 700 701 702 704 705 706 707 708 709 710 711 712 713 714 716 717 718 719 720 722 723 725 727 728 730 731 732 734 735 737 738 739 741 743
713 712 711 710 709 709 708 708 709 709 708 707 705 702 701 699 698 697 696 695 694 693 692 692 692 691 689 688 687 686 686 684 682 680 679 679 679 680 681 682 684 684 685 685 686 687 688 690 691 693 694 696 698 699 700 701 702 703 704 705 706 707 708 709 710 711 712 713 715 716 717 719 720 722 724 725 727 729 730 732 733 734 735 737 738 740
714 713 713 712 712 711 710 710 710 710 709 707 705 702 700 699 698 697 696 695 694 693 692 692 692 691 690 689 687 685 685 685 683 681 679 679 678 678 679 680 681 682 682 683 683 685 686 688 689 691 693 694 696 697 698 699 700 701 702 702 703 704 705 706 707 708 709 710 712 713 715 716 717 719 721 722 724 726 727 729 731 732 733 735 736 738
716 715 714 714 713 713 712 710 710 709 708 707 705 703 701 699 698 697 696 695 694 693 692 691 691 690 690 688 687 685 684 684 682 681 680 679 678 678 679 679 680 680 681 681 682 683 685 687 688 690 691 693 694 695 696 696 697 698 699 700 701 701 702 703 704 705 706 707 708 710 712 713 715 717 718 720 722 723 725 726 728 730 732 733 734 737
717 716 714 713 713 712 712 710 709 708 708 707 706 704 702 701 699 698 697 696 695 693 692 691 690 688 687 687 685 684 683 682 682 681 680 679 678 678 679 679 679 680 680 680 681 682 684 685 687 688 690 691 692 692 693 694 695 695 696 697 698 698 699 700 701 702 703 704 705 707 708 710 712 714 715 717 719 720 722 724 726 727 729 731 733 736
717 716 714 713 713 712 711 710 709 708 707 706 705 704 702 701 700 699 698 697 696 694 692 690 688 687 685 684 683 682 682 682 682 681 680 679 678 678 678 679 679 680 680 680 681 682 683 684 685 687 687 688 689 690 691 692 692 693 693 694 695 696 696 697 698 699 700 701 702 704 706 707 709 711 713 714 716 717 719 721 723 725 727 729 732 734
717 715 714 713 712 712 711 710 709 708 707 706 704 703 702 701 699 698 697 697 695 694 692 691 688 686 684 684 683 682 682 682 682 682 681 680 678 678 678 679 679 680 680 680 681 681 682 683 684 685 686 686 687 688 688 689 690 691 691 692 692 693 694 694 695 696 697 698 700 701 703 705 707 708 710 712 713 715 717 719 721 723 725 727 730 733
716 715 714 713 712 711 710 709 708 707 706 705 704 702 701 700 699 697 697 696 695 694 692 690 688 686 685 684 683 682 682 682 682 682 682 681 679 678 678 678 679 679 679 680 680 681 681 682 682 683 683 684 685 686 687 687 688 688 689 690 690 691 692 692 693 694 695 696 697 699 700 702 704 706 708 710 711 713 715 717 719 721 723 726 729 732
715 714 713 712 711 710 709 708 707 706 705 704 703 702 701 700 698 697 696 695 694 694 692 691 688 686 685 684 684 683 682 682 682 682 682 682 681 679 678 678 679 679 679 679 680 680 680 681 681 681 682 682 683 684 684 685 686 686 687 687 688 689 689 690 691 692 692 694 695 697 698 700 702 704 706 707 709 711 713 715 717 719 722 725 728 731
714 713 712 711 710 709 707 707 706 705 704 703 702 702 701 699 698 696 695 694 694 693 692 691 690 688 686 684 683 683 683 683 683 683 683 683 682 680 679 679 679 679 680 680 679 679 680 679 679 680 680 681 681 682 682 683 684 684 685 686 686 687 687 688 689 690 691 692 693 694 696 698 700 702 703 705 707 709 712 714 716 718 721 724 727 730
713 712 711 710 709 707 706 705 704 703 702 702 701 700 700 699 697 696 694 694 693 692 692 691 690 689 687 685 684 683 682 682 682 683 684 683 682 680 679 680 679 680 680 680 679 679 679 678 678 678 678 679 680 680 681 682 682 683 683 684 684 685 685 686 687 688 689 690 691 693 694 696 698 699 701 703 706 708 710 713 715 718 720 723 725 728
711 710 709 708 707 706 705 704 703 702 701 700 700 699 698 698 697 696 694 694 693 692 691 690 689 688 687 686 684 682 681 680 681 682 682 682 681 680 679 679 679 680 680 680 680 679 677 677 676 677 677 677 678 678 679 680 680 681 682 682 682 683 683 684 685 686 687 688 689 691 692 694 696 698 700 702 704 707 709 711 714 717 719 721 724 727
709 708 708 707 706 705 704 703 702 701 700 699 698 697 697 696 696 695 694 693 693 692 690 689 688 687 687 687 685 682 679 679 680 681 682 681 680 679 679 679 679 679 680 680 680 679 677 676 675 675 675 676 676 677 677 678 679 679 680 680 681 681 682 682 683 684 685 687 688 689 691 693 695 696 698 700 702 705 707 710 712 715 717 719 722 724
708 707 707 706 705 704 703 702 701 700 699 698 697 697 696 695 695 694 693 693 692 692 691 689 688 687 686 685 684 682 680 679 680 681 682 682 680 679 678 679 679 679 679 680 679 679 678 676 675 674 675 675 676 676 676 677 677 678 678 679 679 679 680 681 682 683 684 685 687 688 690 692 693 695 697 699 701 703 705 707 710 712 714 716 719 722
707 707 706 705 704 703 703 702 701 700 698 697 697 696 695 694 694 693 692 692 692 691 691 690 688 687 685 684 682 681 680 679 680 681 682 682 681 679 678 678 678 678 679 679 679 678 678 677 675 674 674 675 675 675 676 676 677 677 677 677 678 678 679 679 681 682 682 684 686 687 689 691 692 694 696 697 699 701 703 706 708 709 711 713 716 719
707 706 705 704 703 702 702 701 700 699 698 697 696 695 695 694 693 692 692 691 691 691 690 689 689 687 686 684 682 680 678 678 679 679 680 681 680 679 678 678 678 678 678 678 678 678 677 676 675 675 674 674 674 674 675 675 676 676 677 677 677 677 677 678 679 680 681 683 685 687 688 690 692 694 695 697 698 700 702 704 706 707 709 711 713 717
706 705 704 703 702 702 701 700 699 699 698 697 696 695 694 693 692 692 691 690 690 689 689 689 688 687 686 685 683 681 679 678 678 679 679 678 677 677 677 676 676 677 677 677 677 677 677 675 675 675 674 674 673 673 673 674 675 675 676 676 676 676 677 677 678 679 680 682 683 685 687 689 691 693 694 695 697 698 701 702 704 706 708 710 712 714
705 704 703 702 702 701 700 699 699 698 697 697 696 695 694 693 692 691 690 689 688 688 687 687 687 686 686 685 684 682 680 678 677 678 678 677 676 675 673 673 673 674 675 676 676 676 675 674 674 674 674 674 673 672 672 673 674 674 675 675 675 676 676 676 677 678 679 681 682 684 686 687 689 691 692 694 695 697 699 701 703 705 707 709 711 712
705 704 703 702 701 700 699 699 698 697 697 696 695 694 693 692 691 690 689 688 687 687 686 685 684 684 683 683 682 681 680 678 677 677 677 677 677 675 672 671 671 672 673 673 673 673 673 673 673 673 673 673 672 672 672 672 672 673 674 674 675 675 675 676 676 677 678 680 681 682 684 686 687 690 692 693 695 697 699 701 703 705 707 709 710 712
705 704 703 702 701 700 699 698 697 697 696 695 695 694 693 692 690 689 688 687 686 685 684 683 682 681 681 680 679 679 678 677 676 676 675 675 675 675 673 671 669 669 670 670 671 671 672 672 672 672 672 671 671 671 671 671 672 672 673 673 674 674 674 675 675 676 677 678 680 681 683 685 687 689 691 693 696 698 700 702 703 705 707 708 710 712
704 703 702 702 701 700 699 698 697 697 696 695 694 693 692 691 690 689 687 687 685 684 683 682 681 680 678 677 676 676 675 674 674 674 674 673 673 673 672 671 669 667 667 668 669 669 669 669 669 669 669 669 670 670 670 670 671 671 672 673 673 673 674 674 674 675 676 677 679 680 682 684 686 687 690 692 694 696 698 700 702 703 705 708 710 713
704 703 702 701 701 700 699 698 697 696 695 694 693 692 691 690 689 688 687 686 684 683 682 681 680 678 677 676 674 673 672 672 672 672 672 672 671 671 670 669 668 667 667 667 667 667 667 667 667 666 667 667 668 668 669 669 669 670 672 672 673 673 672 673 674 674 675 676 677 679 681 682 684 686 688 690 691 693 694 696 698 701 702 705 708 711
704 703 702 701 700 699 698 697 697 695 694 693 692 691 690 689 688 687 686 685 683 682 681 679 678 677 675 674 673 672 671 670 670 670 670 669 669 669 668 667 667 667 666 666 666 666 666 665 665 665 665 665 666 667 667 667 668 669 670 671 671 671 672 672 673 673 674 675 676 677 679 681 682 684 686 688 689 691 692 694 696 698 700 702 704 707
705 704 702 701 700 698 697 697 695 694 693 692 692 690 690 689 688 687 685 684 682 681 680 679 677 676 674 672 671 670 669 669 668 668 668 667 667 667 666 666 665 665 665 665 665 664 664 664 663 663 663 663 664 665 666 666 667 667 669 669 670 671 672 672 672 672 673 674 674 676 677 679 681 683 684 687 688 690 692 693 695 696 698 701 702 704
707 705 703 702 700 698 697 696 694 693 692 692 691 690 689 688 687 686 685 684 683 681 680 679 677 676 674 672 670 669 668 667 667 667 667 666 665 665 664 663 663 664 664 664 664 663 663 663 662 661 661 662 662 663 664 665 665 666 667 668 670 671 671 671 671 672 672 673 673 674 676 677 679 681 683 685 687 690 692 693 694 695 696 698 701 703
708 706 704 702 701 699 697 696 694 693 692 691 690 689 688 687 687 686 685 684 682 681 680 679 677 676 674 672 671 669 668 667 667 666 666 665 664 664 663 662 662 662 662 663 662 662 662 662 661 660 660 660 661 661 662 662 663 664 665 667 668 668 668 668 669 670 671 672 672 673 674 675 677 680 682 684 687 688 690 692 693 694 695 697 699 702
709 707 705 703 702 700 698 696 694 693 692 691 689 688 687 687 686 685 684 683 682 681 680 679 677 676 674 672 671 669 667 666 665 665 664 664 663 663 662 662 661 661 661 661 661 661 661 661 660 659 660 659 659 659 659 660 661 662 663 665 666 667 667 668 668 669 670 671 672 672 673 674 676 678 681 683 685 687 688 689 691 692 694 696 698 700
709 707 706 704 702 701 699 697 695 694 692 690 689 688 687 686 685 684 683 682 681 680 679 678 677 676 674 672 671 669 667 666 665 664 663 662 662 662 661 661 660 660 659 659 659 660 660 659 659 659 659 658 657 657 657 657 659 660 661 663 664 666 667 668 668 668 668 669 670 671 672 673 674 676 678 681 682 684 686 687 688 690 692 694 696 698
709 708 706 705 703 701 700 698 696 694 692 691 689 688 687 686 685 684 683 682 681 680 679 678 677 676 674 673 672 670 668 667 665 664 663 662 661 661 660 660 659 659 658 657 657 657 657 658 658 658 658 657 656 655 655 655 656 657 659 661 662 664 665 666 667 667 667 668 669 670 671 672 673 674 676 678 680 683 685 686 687 689 690 692 694 696
710 708 706 705 703 702 700 698 697 695 693 692 690 688 687 686 685 684 682 681 680 679 678 677 676 675 674 673 672 671 669 668 666 665 663 662 661 660 659 659 658 657 657 656 656 656 656 656 656 656 656 655 654 653 653 653 654 655 656 658 660 661 662 663 664 666 667 667 667 668 669 670 671 672 673 676 679 681 683 685 686 687 689 690 692 694
710 708 707 705 703 702 700 698 697 696 694 692 690 688 687 686 685 684 682 681 680 678 677 676 675 674 673 672 671 670 669 668 666 665 663 662 661 660 659 658 657 657 656 655 654 654 654 653 653 653 654 654 653 652 651 651 652 653 654 656 657 658 660 661 662 664 665 666 667 667 667 668 668 669 670 673 676 678 681 682 684 686 687 689 690 692
709 708 707 705 703 702 700 699 697 696 694 693 691 689 687 686 685 684 682 681 680 678 677 676 674 673 672 671 670 669 668 667 665 664 663 662 661 660 659 658 657 657 656 655 654 653 652 652 651 650 651 651 652 651 651 650 650 651 652 653 654 656 657 659 660 662 663 664 665 666 667 667 668 669 670 671 673 675 678 680 682 683 685 687 689 690
709 707 706 705 703 702 700 699 697 696 694 693 692 690 688 687 685 683 682 681 679 678 676 675 674 672 671 670 668 667 667 666 665 663 662 661 660 660 659 658 658 657 656 655 653 652 652 651 649 648 647 648 649 650 650 649 649 649 650 650 651 653 654 656 657 659 661 662 664 665 666 667 667 668 668 669 671 673 676 678 679 681 682 684 687 688
Wind_Speed
26 25 25 25 25 26 28 32 35 36 36 37 38 39 39 39 38 38 39 40 41 41 42 41 41 41 41 41 42 42 42 41 41 40 39 39 38 36 34 32 31 32 33 34 33 32 32 32 32 33 33 35 36 38 39 41 42 43 44 45 46 46 46 47 47 47 47 46 46 45 45 45 45 45 45 45 44 43 42 41 41 41 40 40 39 38
26 25 25 25 25 25 26 29 32 34 35 36 37 38 38 39 39 39 40 42 44 44 44 43 42 42 42 43 44 46 46 47 47 47 47 46 46 45 43 39 35 33 32 32 31 31 31 31 32 32 33 34 35 36 38 39 41 42 44 45 46 46 47 47 48 48 47 46 46 46 46 46 47 47 47 46 46 45 43 42 42 42 42 41 40 39
26 25 26 26 26 26 25 26 29 32 34 35 36 36 37 37 38 39 41 43 45 46 47 45 44 44 44 44 45 47 48 50 51 51 52 52 52 51 50 46 42 38 36 34 33 32 32 32 32 33 33 33 34 35 36 37 39 40 42 44 45 46 47 47 48 48 48 46 45 45 46 47 47 48 48 48 47 46 45 44 43 43 43 43 42 40
26 25 26 26 27 28 28 27 27 28 30 32 34 35 35 36 38 40 42 43 45 46 47 47 46 46 45 45 47 48 50 52 53 54 54 55 55 55 53 50 47 43 41 40 39 38 38 37 36 35 34 34 34 34 35 36 37 39 41 43 44 46 46 47 48 48 48 47 46 46 46 45 46 47 49 49 48 47 46 45 44 44 45 44 43 42
25 25 25 25 26 28 30 29 28 28 29 30 32 33 35 36 38 40 41 43 44 44 45 46 46 46 46 47 48 49 51 53 54 54 55 55 55 55 54 52 50 48 47 46 46 46 46 45 43 42 40 38 37 36 36 36 36 38 40 42 44 45 46 46 47 47 48 48 48 47 46 44 43 44 46 47 47 48 47 46 46 46 46 45 45 43
23 24 25 24 25 27 28 28 28 27 28 29 31 33 34 35 37 38 39 40 40 41 42 43 44 46 47 48 49 50 51 52 53 53 53 53 53 52 51 51 50 50 50 51 51 52 51 51 50 49 48 45 43 41 40 39 38 39 40 42 43 44 45 45 46 47 47 48 49 48 46 43 42 42 43 43 44 46 47 47 47 47 48 47 46 45
21 23 23 24 25 26 26 27 28 28 27 27 29 31 32 33 34 34 35 36 36 37 39 40 42 43 45 47 49 50 51 50 50 51 50 50 49 49 48 48 48 49 50 52 54 55 54 54 54 53 53 51 49 46 44 42 41 40 41 42 43 43 44 44 45 46 47 48 49 49 48 45 43 42 42 41 42 44 46 47 47 48 49 48 47 46
17 20 22 23 24 24 25 26 28 29 28 27 26 27 28 30 31 32 33 33 34 34 35 37 38 40 42 44 46 48 48 48 48 48 48 48 47 46 46 46 47 48 50 52 54 55 55 55 55 55 54 53 51 49 46 43 41 41 41 41 41 41 42 43 44 45 46 47 48 49 49 47 45 43 42 42 42 43 45 46 46 47 49 49 48 47
13 13 17 21 22 22 23 25 28 30 30 29 26 24 24 25 26 28 29 30 32 33 33 34 35 37 39 41 42 43 45 46 46 46 47 46 45 45 45 46 47 48 50 52 54 55 55 55 55 54 54 53 51 49 46 43 41 40 40 40 39 39 40 41 42 44 45 46 47 48 49 48 47 45 45 44 43 43 44 45 45 46 47 48 48 47
17 15 13 13 17 21 24 24 26 28 31 31 30 28 26 24 23 23 23 26 29 32 33 33 32 33 36 38 39 40 41 42 44 45 45 45 45 45 46 47 48 49 51 52 54 55 55 55 53 52 50 49 48 47 45 42 40 39 39 39 38 38 38 39 41 42 44 45 46 47 48 49 48 47 48 47 45 44 44 45 45 45 47 47 47 47
17 18 17 16 14 14 17 21 23 26 30 32 32 31 30 27 24 22 20 21 25 28 30 31 31 31 31 33 35 36 37 38 40 41 43 43 44 45 46 47 49 50 51 53 54 54 53 51 48 46 44 43 42 42 41 40 39 39 38 38 37 37 38 39 40 41 42 44 45 47 48 48 48 49 49 49 48 46 45 46 46 46 48 48 48 48
15 16 16 17 17 16 14 12 13 18 23 25 25 26 27 28 26 24 22 23 24 26 26 29 31 32 32 31 31 32 33 34 35 36 38 40 42 43 43 45 46 48 49 50 51 51 49 46 42 39 38 37 36 36 37 37 37 38 37 37 37 38 38 39 40 40 41 43 44 46 47 48 48 49 49 50 49 48 47 47 47 48 49 50 50 50
14 14 15 15 15 15 16 17 14 9 8 12 15 16 19 23 25 25 25 26 27 27 25 26 28 32 35 36 34 31 31 32 33 34 35 37 39 40 41 41 42 44 45 45 45 45 43 40 38 36 35 34 34 35 35 36 37 37 37 37 38 38 39 39 40 40 41 42 43 44 46 47 48 49 49 49 49 49 48 48 49 49 51 53 53 52
13 14 14 13 12 13 14 16 15 13 11 8 7 9 10 12 15 18 20 22 25 27 26 26 26 29 33 37 38 36 33 32 33 33 33 34 36 38 39 39 40 42 42 41 41 41 40 38 37 36 36 36 36 37 37 38 38 38 38 39 39 40 40 40 40 40 40 41 42 43 44 46 47 48 49 49 49 48 48 49 49 50 53 54 54 53
12 12 11 10 11 12 13 14 13 12 13 15 16 17 17 15 12 10 10 12 15 19 22 23 25 27 29 34 39 41 39 35 32 31 31 34 37 39 39 39 39 41 41 40 41 41 41 40 39 39 39 40 40 41 41 41 41 42 41 42 41 41 41 41 40 40 40 40 41 42 43 44 46 47 48 48 48 48 48 49 49 50 53 56 56 53
10 10 9 9 10 12 12 13 12 12 13 15 17 18 17 16 15 15 13 12 12 13 14 16 17 19 23 31 38 41 41 37 33 30 31 33 37 40 40 38 38 39 40 41 42 43 43 43 43 43 43 44 45 45 45 45 45 45 44 44 43 43 42 41 40 40 40 40 40 41 42 43 44 45 46 47 47 47 48 49 49 50 53 56 57 55
9 9 9 9 10 11 12 13 12 13 15 16 17 16 15 14 14 14 13 13 14 14 11 8 6 5 9 17 27 34 39 37 34 31 30 31 36 40 41 39 37 37 39 41 42 43 44 44 45 46 46 47 48 48 48 47 47 46 45 44 44 43 42 41 41 40 40 40 40 41 42 42 43 44 44 45 46 46 47 49 50 51 53 57 58 57
10 10 10 10 10 11 12 13 14 15 17 17 17 17 16 15 15 14 13 13 13 13 12 10 7 3 2 4 8 18 30 35 33 29 28 29 34 38 40 40 39 39 39 40 42 44 45 45 46 47 47 48 48 47 47 46 45 44 43 43 42 42 42 41 41 41 41 41 41 41 41 42 42 42 43 44 45 46 47 48 50 53 55 58 59 58
12 12 11 11 11 12 13 14 15 17 18 18 18 17 16 15 15 14 13 13 12 12 12 11 10 9 7 9 11 10 16 27 30 27 25 25 29 34 37 38 38 38 38 40 41 43 44 44 45 45 45 45 44 43 42 41 40 40 40 40 40 40 41 41 41 41 41 41 41 41 41 41 41 42 42 43 44 45 46 48 51 54 58 60 60 59
14 13 12 13 14 14 13 14 16 18 19 20 20 18 16 16 15 15 14 14 13 12 12 11 11 11 13 18 23 24 18 18 23 24 21 21 22 27 32 34 35 35 36 38 40 41 41 41 41 41 40 39 38 37 36 35 35 35 35 36 37 38 39 39 40 41 41 41 41 41 41 41 41 41 42 43 43 44 46 48 51 54 58 60 60 58
14 13 14 16 16 15 14 15 18 20 21 22 21 19 17 16 16 15 15 15 15 14 13 12 12 14 17 20 25 29 26 18 18 19 17 16 16 20 26 30 32 32 32 34 36 37 37 37 36 35 34 33 32 31 31 31 31 31 31 32 33 34 36 37 38 39 40 41 41 41 41 40 40 40 41 42 42 43 45 48 51 54 57 58 58 57
14 15 17 19 19 17 17 19 21 21 21 21 20 19 17 17 16 16 16 16 16 15 15 15 16 19 22 24 28 30 26 19 17 17 13 10 11 14 21 26 28 28 27 29 31 32 32 32 31 30 29 28 28 28 29 29 29 30 30 30 31 32 33 34 36 37 39 40 41 41 41 40 40 40 40 41 41 43 45 48 51 54 57 57 56 55
16 17 20 20 20 19 19 21 22 22 21 20 20 19 19 19 18 18 18 18 18 18 18 20 22 24 25 25 25 25 23 18 16 16 11 6 6 11 17 22 24 23 22 24 26 27 28 28 27 27 26 26 26 27 27 28 28 29 29 30 30 31 32 33 34 35 37 38 39 40 40 40 39 39 39 40 41 42 45 48 51 54 57 57 55 54
18 19 20 20 20 20 20 21 21 22 21 20 20 19 19 19 19 19 19 20 20 20 20 22 23 23 22 21 20 20 21 17 15 14 11 8 7 9 13 19 20 19 19 21 23 24 25 25 25 25 25 25 25 25 26 27 27 28 28 28 29 29 30 31 32 34 35 36 38 38 39 39 39 39 39 39 40 42 45 48 52 55 57 56 54 53
18 18 18 19 19 20 20 21 21 21 20 20 20 19 19 19 19 19 19 19 18 18 18 18 17 16 16 17 16 17 18 17 14 13 10 7 6 8 12 16 18 18 18 20 22 24 24 25 25 24 24 24 24 24 25 25 25 25 26 26 27 28 28 29 31 32 33 34 36 37 38 38 38 38 38 38 40 43 46 49 52 55 56 55 53 53
16 16 16 17 18 19 19 19 19 19 19 19 19 19 19 19 19 18 17 16 15 14 14 13 12 12 15 15 15 15 16 17 15 13 10 6 4 4 10 15 18 18 17 19 21 23 24 24 25 24 23 23 23 23 23 23 23 23 23 24 24 25 26 27 28 30 31 32 34 35 36 37 37 37 37 38 41 44 47 50 53 55 56 54 53 53
15 16 16 17 18 18 19 19 19 18 17 17 16 17 17 18 17 16 13 12 11 12 12 9 7 9 12 13 13 13 14 15 15 14 13 10 6 4 7 12 16 17 16 16 19 22 22 23 23 23 23 22 22 22 22 22 22 22 22 22 22 23 24 25 26 28 29 31 32 34 35 36 36 37 37 39 42 45 48 51 53 55 55 54 53 53
15 16 16 17 18 18 18 18 18 18 17 16 15 15 15 16 15 14 12 11 11 11 11 8 6 6 7 9 12 15 16 15 15 16 16 15 10 6 6 9 14 15 13 11 14 19 21 22 22 22 22 21 21 21 21 20 20 20 20 20 20 21 22 23 25 26 28 29 31 33 34 35 36 36 38 40 43 46 49 51 53 54 55 53 52 52
16 16 17 17 17 17 18 18 18 18 17 16 16 15 15 14 14 14 14 14 13 11 10 9 9 8 8 12 15 17 18 17 17 17 16 14 10 6 7 8 11 14 11 6 7 11 15 19 21 22 22 21 21 20 20 20 20 20 19 19 19 20 21 22 23 25 27 28 30 32 33 34 35 37 39 41 45 47 49 51 52 53 53 52 50 49
18 17 17 17 17 18 18 19 19 19 17 17 16 15 15 14 14 14 15 15 14 13 11 10 10 11 11 11 11 11 13 15 14 13 13 11 9 6 7 8 11 13 10 4 2 3 5 11 15 19 21 21 21 21 20 20 19 19 19 18 18 19 20 21 22 24 25 27 29 31 33 34 36 38 40 43 46 48 50 51 51 51 51 50 49 48
18 18 17 18 18 19 19 19 19 19 19 18 17 17 16 15 14 14 14 14 14 14 13 12 11 11 11 6 4 4 5 10 11 10 9 9 8 6 8 8 11 13 12 7 2 1 2 3 6 10 15 18 19 20 20 19 19 19 18 18 18 18 20 20 21 22 24 26 28 31 33 35 37 39 42 44 47 49 50 51 51 50 48 48 46 46
18 17 17 18 18 19 19 19 19 19 19 19 19 18 17 17 16 15 14 14 14 14 14 14 13 13 12 9 6 6 6 12 13 12 11 9 7 7 9 9 11 14 15 13 7 2 1 2 2 4 8 11 14 16 18 18 19 19 18 17 17 18 19 19 20 21 23 25 27 30 33 35 38 41 43 45 48 49 51 51 50 49 47 46 45 44
18 18 18 18 18 18 18 18 19 19 19 19 19 18 18 18 17 17 16 15 15 14 14 14 14 14 14 13 12 12 14 16 17 16 15 13 11 10 11 11 12 13 15 16 12 6 4 3 3 3 5 8 11 13 15 17 18 18 18 18 18 18 18 18 19 21 23 25 28 31 34 36 39 42 44 46 48 49 51 51 51 50 49 48 46 43
18 18 18 18 17 17 17 18 18 18 18 18 19 19 19 19 18 18 18 17 17 16 15 15 14 14 14 14 13 14 14 15 16 16 17 17 16 15 14 13 13 13 13 14 13 9 5 5 4 4 4 6 10 13 14 16 17 18 18 18 19 19 19 19 20 22 25 27 30 33 35 38 40 42 44 46 48 50 51 52 52 52 52 51 48 45
18 18 18 18 17 17 17 17 17 17 17 17 18 19 19 19 20 19 19 19 19 18 17 16 16 16 15 15 14 14 15 16 16 15 15 18 19 18 16 16 15 14 12 12 11 9 6 6 7 7 5 4 7 12 14 16 17 18 19 19 20 20 20 21 22 24 26 28 31 34 36 39 41 43 45 47 49 50 51 52 52 52 53 53 51 49
17 17 17 17 17 17 17 16 16 16 16 16 17 18 19 20 21 21 21 21 21 20 20 20 20 19 18 17 17 17 19 21 22 22 20 18 19 19 17 16 17 17 15 14 13 11 8 8 9 11 9 6 6 8 12 15 17 18 19 20 21 21 22 22 24 25 27 29 30 33 36 39 40 42 45 47 49 51 52 52 51 51 52 52 52 50
17 17 17 17 17 16 16 16 16 16 16 16 17 18 19 20 21 22 22 22 22 22 23 23 23 23 22 22 21 22 23 25 26 26 25 23 21 20 18 17 18 20 19 17 15 14 12 9 8 9 9 9 8 6 7 12 16 18 20 21 21 22 23 24 25 27 29 30 31 32 35 38 39 40 43 47 49 51 51 51 51 50 50 51 51 49
16 16 16 17 16 16 16 16 17 17 17 17 18 19 20 21 22 22 22 23 23 23 24 24 24 24 24 24 25 25 25 25 25 25 24 24 24 24 22 20 19 21 22 21 19 17 15 9 5 4 4 9 12 11 10 12 15 18 20 21 22 22 24 25 27 29 30 31 32 33 36 37 38 39 41 44 47 48 48 48 48 48 48 49 48 47
17 17 17 17 16 16 16 17 17 18 18 19 19 20 20 21 21 21 22 22 23 23 23 24 24 24 25 25 25 25 25 24 23 22 21 21 23 24 25 23 21 20 21 22 22 20 18 13 8 5 3 6 9 12 13 14 15 17 20 21 21 22 24 26 29 31 32 32 32 33 34 36 37 37 39 42 44 44 43 43 44 44 45 44 44 43
19 18 18 18 17 17 17 17 18 19 20 20 20 20 20 20 20 20 21 21 22 22 22 22 23 23 24 24 24 24 24 23 21 20 20 20 21 23 25 25 23 20 19 21 22 21 20 17 16 15 13 10 9 10 11 14 16 17 18 17 16 18 22 26 29 31 33 33 33 33 34 35 36 36 37 40 41 41 41 40 40 42 43 42 40 39
20 20 20 20 20 20 19 19 20 20 20 19 19 19 18 18 18 18 20 20 21 21 21 22 22 22 22 22 22 22 22 22 21 20 19 20 21 23 25 26 25 23 19 19 20 21 21 20 19 18 17 15 14 12 12 14 17 18 18 16 16 18 22 25 28 30 32 33 34 35 35 35 36 37 37 39 40 41 41 40 39 40 42 42 42 40
20 21 21 22 22 22 22 22 22 21 20 19 18 17 17 17 17 18 19 20 20 21 21 21 21 21 21 21 21 21 21 21 20 20 19 20 21 22 24 25 26 25 22 20 19 20 21 21 20 19 18 17 15 13 12 14 17 19 20 19 18 18 19 23 26 28 30 31 33 35 35 35 35 36 37 38 39 39 39 39 39 40 41 40 41 42
20 21 22 23 23 23 23 23 22 21 20 18 18 17 17 17 17 17 18 19 20 20 21 20 20 20 20 20 20 21 21 20 20 19 19 20 21 22 23 24 25 25 24 21 19 19 20 21 21 21 21 20 18 16 13 14 16 19 21 21 19 15 11 16 22 26 27 29 31 33 34 35 36 36 36 37 37 37 37 38 39 41 41 40 40 40
20 21 22 23 23 23 23 22 22 22 21 20 19 19 19 18 18 18 18 18 19 20 20 20 20 19 18 18 19 20 21 20 19 19 19 19 19 20 21 23 24 25 24 22 19 17 17 19 20 21 21 21 20 18 16 16 16 18 21 23 22 19 15 16 21 25 26 27 29 32 34 35 35 35 35 36 36 36 36 36 37 39 41 41 41 41
20 20 21 21 22 22 22 22 22 22 22 21 21 20 20 20 20 19 18 17 18 18 19 19 19 18 16 17 18 19 20 20 20 20 19 19 18 19 20 21 22 22 23 23 22 20 18 17 18 20 21 21 20 19 18 17 17 19 21 23 24 23 22 20 23 26 26 26 27 30 32 35 35 35 34 34 33 33 34 35 36 37 39 39 39 40
19 20 20 20 21 21 21 22 22 22 22 22 22 21 21 22 21 19 18 17 17 17 18 18 17 16 15 16 18 18 19 20 20 21 20 20 19 19 20 21 21 22 23 24 24 24 23 21 20 19 18 19 19 20 21 20 19 19 20 22 24 23 22 21 22 26 27 27 28 29 32 34 34 33 31 31 32 32 33 34 35 37 38 38 38 39
19 20 20 20 20 20 21 21 22 22 22 22 22 22 22 22 21 20 19 18 17 17 17 17 16 15 15 16 17 17 17 18 19 21 21 21 21 20 21 21 23 23 24 25 25 25 26 25 24 21 19 17 17 18 20 21 21 20 21 22 23 23 22 21 23 25 28 28 28 29 31 32 32 31 30 30 31 32 32 34 36 38 39 39 38 38
19 20 20 20 20 20 20 21 21 21 22 22 23 23 23 22 22 21 20 20 19 18 17 17 16 16 16 17 18 18 18 18 19 20 21 21 21 21 20 21 22 23 24 25 26 27 27 28 27 25 22 19 17 17 18 20 22 22 22 23 24 23 22 23 24 26 27 28 28 30 32 32 31 30 29 28 28 29 30 32 35 38 39 39 38 37
19 19 19 19 19 20 20 20 21 21 21 22 22 23 23 23 22 21 20 20 20 18 17 16 16 16 16 17 18 19 19 19 19 19 19 20 20 20 19 20 21 22 23 23 24 25 27 28 29 29 26 23 20 19 19 20 22 24 24 24 25 25 24 24 26 28 28 28 29 31 33 33 32 32 30 28 26 26 28 30 34 37 39 39 38 37
19 19 19 19 19 19 20 20 20 20 20 21 22 22 23 23 23 22 21 20 20 18 17 17 16 16 16 17 18 19 18 18 18 18 18 19 18 18 18 18 19 19 19 19 19 19 19 21 25 28 29 28 25 22 19 19 21 23 24 25 26 26 25 25 27 28 29 29 29 31 33 32 31 31 30 29 28 27 27 28 31 35 39 40 39 38
20 20 20 19 19 19 20 20 20 20 20 21 21 21 22 22 22 22 21 20 20 19 19 18 18 17 16 17 18 18 18 18 17 18 19 18 18 18 18 17 17 16 15 12 10 8 7 8 12 17 24 28 28 26 22 19 19 20 21 23 25 27 27 26 27 29 30 30 30 32 33 31 29 28 29 29 28 27 25 26 28 33 38 40 40 39
Wind_Direction
243 242 240 238 236 232 228 226 223 220 220 220 221 222 224 227 229 231 233 233 234 234 235 235 237 239 242 244 246 248 249 250 250 250 251 251 251 250 247 243 239 237 235 235 234 235 236 237 238 240 240 240 239 238 237 237 237 237 237 238 238 239 239 238 237 236 234 233 231 229 229 228 226 223 221 219 218 217 217 217 216 215 213 211 208 205
238 237 235 233 233 233 231 229 225 221 220 220 221 222 223 225 228 231 233 234 234 233 232 232 232 233 237 240 243 245 247 248 249 250 251 251 251 251 251 248 244 241 238 238 238 238 239 239 239 240 240 241 241 240 238 238 237 237 237 238 238 239 239 239 238 237 234 232 230 229 229 228 226 224 222 220 219 218 217 216 216 215 213 211 209 207
233 232 230 229 229 231 232 232 229 226 224 224 225 226 226 228 229 231 233 234 234 234 233 231 230 230 233 236 239 242 244 246 247 248 249 249 250 250 250 249 247 245 245 244 245 245 245 245 244 242 240 241 241 241 240 239 238 238 238 238 238 239 240 240 239 238 235 232 230 229 229 226 225 224 223 222 220 218 217 216 215 214 214 212 211 208
231 228 228 227 228 230 232 233 233 232 231 231 232 232 232 232 232 233 235 235 235 235 235 233 232 231 232 234 237 239 241 243 244 245 247 247 248 248 248 248 247 248 249 251 252 253 253 251 249 247 245 244 244 243 242 241 240 239 239 239 239 239 240 240 240 240 238 235 232 230 228 226 224 223 222 222 220 218 217 216 215 214 213 212 211 209
230 227 226 226 228 231 232 233 233 234 236 237 237 237 235 234 234 235 236 236 236 237 237 237 235 234 234 235 236 238 239 240 241 242 243 245 246 247 247 247 247 249 251 254 256 257 256 255 254 252 251 250 248 248 247 246 244 242 241 240 239 239 240 240 240 241 240 239 236 233 229 227 225 223 221 220 218 216 216 215 214 213 212 211 211 208
231 229 227 227 228 231 231 231 230 231 233 235 236 236 235 234 233 233 233 234 235 236 238 238 238 237 236 236 236 237 238 239 240 240 241 242 243 244 245 246 247 249 251 254 256 257 257 256 255 254 254 253 252 250 249 248 247 245 242 241 240 239 240 240 240 240 240 240 239 236 233 230 227 224 222 220 217 216 215 214 213 213 212 211 209 208
235 231 229 228 229 230 229 228 227 225 225 227 229 231 231 231 230 230 231 232 234 236 237 238 238 237 236 235 235 236 236 237 238 239 239 239 240 241 243 245 246 248 250 252 254 255 256 255 254 253 253 252 251 250 248 247 245 243 242 241 240 240 240 240 240 240 240 240 240 239 236 233 229 225 223 221 219 217 216 214 212 211 210 209 208 207
249 237 229 227 227 228 228 227 225 223 221 220 221 223 226 228 229 230 232 234 235 236 236 237 237 236 235 234 234 234 234 235 236 237 237 237 237 239 241 243 245 247 249 250 252 254 254 254 253 252 251 250 248 247 246 244 242 240 240 240 240 240 240 240 240 240 240 240 240 239 238 235 231 227 224 222 221 220 218 215 213 211 209 208 207 206
304 270 244 230 224 225 227 228 226 224 221 219 218 219 221 224 227 230 232 234 235 235 235 235 235 235 235 234 233 233 233 234 234 235 235 234 234 236 238 241 243 245 247 248 250 252 253 253 252 250 248 247 245 243 242 240 238 238 239 239 240 240 240 240 240 240 240 240 240 239 239 237 234 229 225 223 222 222 221 218 214 211 209 207 206 206
345 332 306 268 241 230 228 228 227 225 223 224 224 224 224 224 225 227 228 230 232 233 233 233 234 235 236 236 235 235 234 234 235 234 234 233 234 235 237 239 241 243 244 246 248 250 252 251 249 246 243 241 239 238 237 237 237 238 240 240 240 240 240 240 240 240 240 240 240 239 239 238 236 232 228 225 224 224 224 222 218 213 209 207 206 205
351 348 342 330 307 274 248 237 231 227 224 225 227 229 229 226 223 221 222 225 228 230 230 231 232 233 234 236 236 235 234 234 234 235 234 234 234 235 236 238 239 241 243 245 247 248 248 246 243 239 236 234 233 232 233 234 236 239 240 241 240 240 240 240 239 239 240 240 240 239 239 238 236 234 231 228 227 227 227 225 222 216 211 208 206 205
346 344 342 341 339 334 321 295 260 234 223 220 223 227 228 226 222 219 219 223 224 224 225 228 231 232 232 233 233 233 232 232 233 233 233 233 233 234 234 235 237 239 241 243 244 244 242 239 236 234 232 231 231 231 233 235 238 240 241 242 242 242 241 241 240 239 239 239 239 239 238 237 236 235 233 231 230 229 228 226 224 220 214 210 207 205
343 340 335 334 338 345 349 347 339 313 247 226 224 226 227 225 221 219 221 223 224 223 222 224 228 231 233 233 232 231 230 230 231 231 232 231 231 231 230 231 233 235 237 238 238 237 235 233 233 233 234 235 236 237 239 241 242 244 244 245 245 244 243 242 241 240 239 239 238 238 237 236 235 234 233 233 232 232 230 228 226 222 216 210 207 204
342 339 335 332 334 342 350 352 351 352 355 346 324 301 281 260 243 232 228 228 228 227 225 225 227 230 232 233 233 232 229 229 230 230 230 230 230 229 228 228 229 230 232 232 232 232 232 232 233 235 237 239 242 243 244 246 247 247 248 248 247 246 245 244 243 241 240 239 238 237 236 235 234 233 232 232 233 233 232 230 227 223 216 211 207 203
341 338 335 332 332 337 343 344 345 353 7 8 2 355 352 347 334 311 286 266 251 242 235 232 230 230 231 232 233 232 229 228 228 227 228 229 229 229 228 226 227 228 228 228 229 231 233 234 236 239 241 243 244 246 247 247 248 249 250 249 248 247 245 244 243 241 240 238 237 236 235 234 233 232 231 231 232 233 233 230 227 223 216 210 205 202
340 336 332 327 325 328 333 335 340 351 4 4 1 358 356 355 354 352 346 335 318 295 265 246 237 234 233 232 232 231 228 225 224 224 224 226 228 228 227 224 224 225 226 227 229 232 235 237 240 242 243 245 246 247 247 247 248 248 249 248 247 246 244 243 242 241 239 238 236 235 234 233 232 230 229 229 230 231 231 229 226 223 216 210 205 201
336 332 326 321 317 320 329 337 349 1 3 358 355 352 349 347 346 348 350 351 349 339 316 285 263 244 240 233 230 227 224 221 220 221 221 223 226 227 226 223 221 223 226 228 230 233 236 238 240 242 243 244 245 246 245 246 246 246 246 246 245 244 242 242 241 240 238 237 235 234 233 232 231 229 228 228 229 230 229 226 223 220 216 210 206 202
333 328 323 317 318 326 338 351 2 5 359 353 348 345 343 342 342 344 346 351 355 353 345 329 316 306 301 275 246 228 221 217 217 218 219 221 224 226 225 223 222 223 226 228 231 233 235 237 238 240 241 242 242 242 242 243 243 243 243 243 242 241 241 240 239 239 237 236 235 234 233 232 230 228 227 227 228 228 227 223 219 215 212 209 205 201
331 329 327 327 333 342 350 358 1 357 351 346 343 341 339 340 342 343 345 349 351 352 348 341 332 327 326 325 325 299 239 219 217 218 218 219 221 222 223 220 220 221 224 227 230 232 233 234 235 236 237 238 238 239 240 241 241 241 240 240 240 240 240 240 239 238 237 236 235 234 233 232 230 228 226 226 226 227 226 221 216 210 206 203 200 198
332 335 343 349 351 349 349 350 350 347 343 340 339 338 337 338 339 340 341 342 342 342 340 336 333 332 332 329 329 325 306 249 227 223 223 221 219 219 218 215 214 217 220 224 227 228 228 229 229 231 233 234 236 239 240 241 241 241 241 240 240 240 240 240 239 239 238 237 236 235 234 232 231 228 226 225 226 226 224 219 213 207 202 198 196 193
336 341 350 354 351 344 338 337 337 337 337 337 337 336 335 336 336 335 335 335 334 333 332 328 325 324 324 321 321 322 320 287 248 232 230 225 220 216 213 210 209 211 214 218 221 223 223 224 226 228 231 235 239 241 243 244 244 244 243 242 242 241 241 240 240 239 238 237 237 235 234 233 231 228 226 225 225 225 223 218 212 205 200 196 193 191
333 334 337 340 339 334 328 327 328 330 333 335 334 333 332 332 330 329 329 329 328 327 325 321 318 316 315 313 317 322 323 297 260 240 236 230 225 218 211 206 205 206 209 212 215 218 220 222 226 231 235 239 242 244 246 246 247 246 246 245 244 243 242 241 240 239 238 238 237 236 234 233 230 228 226 225 225 224 221 216 210 204 199 195 192 191
328 326 327 330 331 329 326 325 325 326 328 329 328 326 326 325 323 321 322 322 321 319 317 314 313 312 313 314 319 324 325 304 269 246 238 233 229 223 213 206 204 206 209 212 214 217 220 224 229 234 238 241 243 245 246 247 247 247 247 246 244 243 242 240 239 239 238 237 237 235 234 232 230 228 226 225 224 223 219 214 208 202 197 194 192 191
324 323 325 326 327 326 324 323 322 322 323 323 321 320 321 319 318 316 315 315 314 312 310 310 310 310 312 316 320 324 324 312 281 254 245 242 239 231 220 212 210 212 216 219 220 222 225 229 233 236 239 241 243 245 246 246 247 246 246 245 243 242 240 239 238 238 237 236 236 235 233 231 229 227 225 224 223 220 217 211 205 200 196 193 192 192
319 320 321 322 323 322 321 319 318 318 318 318 317 317 317 317 315 314 312 311 309 308 308 307 307 307 311 317 319 319 320 317 292 262 256 257 255 243 232 223 217 217 224 228 229 230 232 234 236 237 239 241 243 244 245 245 245 244 243 242 241 240 239 238 237 236 236 235 234 233 232 230 228 226 224 222 220 217 213 207 202 198 195 193 192 193
317 316 317 318 318 317 317 316 315 315 314 314 314 314 315 315 314 313 311 310 310 310 309 306 304 305 309 313 314 315 317 319 301 275 263 272 290 266 239 231 223 220 226 232 235 235 236 236 238 239 240 242 243 244 244 244 243 242 241 240 239 238 237 236 236 235 234 234 233 231 230 228 226 224 222 220 217 213 208 204 200 196 194 192 192 193
319 318 317 317 316 316 316 315 315 315 313 312 312 312 313 314 312 308 305 307 311 313 310 307 305 305 306 306 306 309 314 317 309 293 279 278 292 293 247 233 225 221 224 232 236 236 237 238 239 240 241 243 244 244 244 243 241 240 239 238 238 237 236 234 234 233 233 232 230 229 228 226 224 222 220 218 213 208 204 200 197 194 192 191 191 192
324 323 321 320 319 318 318 318 317 317 316 314 313 312 312 312 308 302 300 306 311 309 302 298 299 302 302 300 301 304 307 307 306 303 296 281 280 289 265 238 224 217 218 231 239 240 240 241 242 244 245 245 245 245 245 243 241 240 239 238 237 235 233 232 231 231 230 229 228 227 225 224 222 220 218 214 209 205 200 197 195 193 191 189 188 188
328 326 324 323 323 322 322 323 325 324 321 319 316 315 313 311 306 301 303 308 307 299 289 287 287 288 291 295 298 299 297 293 293 296 298 277 267 273 273 248 224 214 214 234 254 250 246 246 247 247 248 248 247 246 246 244 242 240 239 238 236 233 231 229 229 228 228 227 226 225 223 222 220 217 214 210 206 202 198 195 192 190 188 186 185 185
330 329 328 328 328 328 329 330 331 330 327 324 322 319 317 314 308 305 306 308 305 296 286 279 276 278 283 291 296 295 289 287 288 290 284 264 252 256 264 245 225 216 213 221 280 289 260 251 248 247 247 247 247 246 246 245 243 242 240 238 235 231 227 226 225 226 226 226 225 223 222 220 217 214 211 207 203 200 197 194 190 187 185 183 183 182
331 331 330 330 332 333 334 333 332 332 331 329 327 326 324 320 315 311 309 308 306 302 297 289 281 275 273 278 284 284 285 289 295 298 287 252 243 252 254 239 226 221 219 211 192 20 292 269 253 246 245 245 245 245 244 244 244 244 242 240 235 230 224 222 221 223 224 225 224 222 220 217 213 210 207 203 200 198 196 192 188 184 181 180 179 179
330 329 329 330 332 334 336 335 334 333 332 331 331 330 329 326 322 318 314 310 308 306 305 303 298 290 278 267 259 260 268 281 288 295 297 268 259 266 260 247 232 226 227 218 215 238 267 288 289 267 252 248 247 246 245 244 245 245 245 243 238 231 223 219 219 221 224 224 223 221 218 213 209 206 203 200 198 196 194 191 186 182 179 178 176 176
327 327 328 329 331 334 336 337 337 336 335 334 333 332 331 329 327 323 320 316 311 307 303 303 304 302 295 282 270 264 264 267 271 276 280 275 274 274 269 257 241 230 227 220 221 229 246 265 290 298 274 261 256 253 250 246 245 246 246 245 242 236 227 221 220 221 221 220 219 217 214 210 206 202 200 197 195 194 192 188 185 182 179 177 175 174
326 326 327 329 330 332 334 338 339 340 339 338 338 336 335 332 330 327 324 321 317 311 305 302 301 302 304 301 293 285 279 276 272 268 263 258 259 264 265 255 242 231 225 221 222 228 245 252 263 280 281 268 261 257 253 248 245 243 244 244 242 238 233 227 223 220 216 213 210 208 206 204 201 199 196 194 193 191 189 186 184 182 181 179 176 174
327 327 328 329 330 331 332 335 338 339 340 339 338 337 335 332 330 327 324 322 319 315 310 306 302 300 302 305 305 303 302 305 304 295 273 250 242 244 250 246 239 231 223 222 221 224 239 242 241 245 258 266 261 256 253 248 243 240 239 240 239 237 233 228 221 214 208 204 201 199 198 196 195 193 192 190 189 188 186 184 183 182 182 181 180 177
328 328 329 330 330 330 330 332 334 336 337 336 335 333 331 329 328 325 323 320 317 315 311 308 304 301 298 296 295 295 296 301 306 307 299 274 250 239 237 238 235 230 224 222 221 223 229 234 236 237 240 251 262 258 251 246 242 237 233 233 233 232 230 225 217 208 200 195 193 191 191 190 188 187 187 187 187 186 185 184 183 183 183 183 183 182
329 329 330 331 330 330 330 331 332 333 332 331 330 329 327 327 326 325 324 322 320 317 314 311 307 303 299 295 291 288 289 293 296 299 299 293 278 261 247 241 235 230 224 222 222 223 225 227 229 231 234 238 243 248 246 240 237 233 229 226 224 223 222 219 212 204 196 191 189 187 186 185 184 183 183 184 184 183 183 183 183 184 184 184 185 185
331 330 330 331 331 331 331 331 331 330 328 326 324 323 322 323 324 325 324 323 322 321 319 316 312 309 306 303 300 297 295 295 296 296 296 295 289 279 265 255 242 233 226 224 223 222 220 220 217 217 228 235 237 239 240 234 229 227 226 223 219 215 213 210 206 200 194 190 187 185 184 183 181 180 180 180 179 179 179 180 182 183 183 184 185 185
331 330 330 331 331 332 330 329 327 325 323 322 320 318 319 320 322 323 323 322 321 320 319 317 315 313 311 310 308 306 304 302 301 300 298 295 292 285 274 264 252 240 232 227 224 222 220 220 217 211 206 228 233 235 235 231 226 223 223 220 217 212 207 204 200 196 192 188 185 183 181 181 179 178 177 177 176 176 176 177 178 179 179 180 180 182
330 329 329 329 329 328 326 324 322 321 320 319 318 318 318 319 320 322 322 321 320 319 319 319 317 315 313 311 309 308 307 305 305 303 300 297 295 291 282 271 262 253 242 232 226 223 221 222 223 223 222 222 224 225 225 224 222 219 215 215 216 213 205 200 196 194 191 188 184 181 180 179 178 177 177 177 177 176 176 176 176 176 177 176 175 174
329 328 328 327 327 326 323 321 320 319 318 318 318 318 319 319 320 321 322 321 321 321 321 322 321 318 315 311 308 307 307 307 306 305 303 301 300 296 289 278 271 265 258 243 232 226 224 224 225 225 223 222 222 222 220 217 216 213 208 208 211 212 206 200 196 192 190 187 185 182 180 178 177 177 177 178 179 179 179 177 176 176 177 177 176 174
329 328 328 327 327 326 324 323 322 322 321 319 319 318 318 319 320 321 321 321 321 321 322 322 321 319 317 314 311 310 310 310 310 310 309 308 306 302 294 285 276 269 263 254 243 234 229 227 226 224 221 219 217 217 217 216 214 211 208 208 209 209 207 203 198 193 189 187 185 183 180 179 178 179 178 179 180 181 181 179 178 177 178 178 178 178
329 328 328 327 327 326 326 326 326 326 325 323 321 319 319 318 318 318 317 317 317 317 318 319 319 317 315 313 313 313 313 313 314 313 312 312 310 307 300 290 278 268 261 256 250 244 238 233 230 227 223 218 214 212 212 210 208 208 208 207 205 201 200 203 200 195 190 188 185 183 181 180 179 179 179 180 181 181 181 181 181 181 181 180 181 181
328 327 327 327 328 328 329 329 329 329 328 326 324 322 321 320 319 317 314 313 313 314 315 316 316 314 312 311 312 314 314 314 313 312 312 312 313 312 306 295 281 266 256 252 251 250 247 241 236 232 226 219 214 211 209 206 204 204 205 205 203 202 202 201 198 195 192 189 186 184 182 181 180 179 179 180 181 181 181 182 182 182 183 184 184 183
327 327 327 327 328 328 329 329 329 329 328 327 326 325 324 324 322 319 314 311 310 312 312 314 314 313 311 311 312 313 312 312 312 313 313 315 316 316 311 301 286 269 256 251 250 250 249 246 242 237 230 222 216 211 208 205 203 203 204 204 204 206 208 205 199 195 192 190 188 186 184 181 179 177 178 179 180 181 182 182 182 182 183 184 185 185
326 326 325 325 326 326 326 327 327 327 327 327 326 326 326 326 325 322 317 314 311 311 312 312 312 310 309 310 311 311 311 312 313 313 314 315 315 316 314 308 297 281 266 257 253 252 250 249 247 241 233 225 218 214 211 206 203 201 201 202 203 205 208 207 203 198 194 191 189 187 184 181 177 175 176 178 180 181 182 183 183 183 183 184 184 185
325 324 323 322 322 322 323 324 325 326 326 325 325 325 326 327 326 324 321 317 315 313 312 312 310 307 306 307 308 309 310 311 311 311 310 310 311 312 312 311 305 295 280 267 259 255 252 250 248 244 235 226 220 216 213 208 204 201 200 199 200 201 204 206 204 200 196 193 190 187 184 180 177 176 176 177 179 182 183 184 185 186 185 185 185 185
323 322 320 320 320 320 321 322 323 323 323 323 322 323 324 325 325 323 320 318 315 312 309 307 305 303 302 302 302 303 303 303 303 303 303 304 306 308 309 310 308 302 292 278 266 258 254 251 249 246 240 231 223 218 213 208 204 202 201 199 198 198 201 204 204 202 198 196 192 188 184 181 179 178 176 175 177 181 184 185 186 187 187 187 186 186
321 319 319 319 318 318 319 320 320 320 320 320 320 320 321 322 322 322 319 317 313 309 305 301 299 297 296 297 297 297 297 296 296 296 297 298 301 304 306 308 308 305 296 284 271 262 257 254 252 250 247 240 233 225 217 209 205 203 201 199 198 198 200 202 202 201 199 197 194 190 186 185 183 180 176 174 175 179 182 185 187 188 188 188 188 188
320 319 319 318 317 317 317 317 318 317 317 317 317 318 319 320 320 320 319 317 314 310 305 300 296 294 293 293 294 294 293 292 292 292 292 294 296 299 302 305 307 304 296 284 273 265 261 261 261 258 255 250 243 235 226 215 207 202 200 199 199 198 198 199 201 200 198 197 195 192 190 188 186 183 179 177 177 178 179 183 186 188 189 189 189 189
320 320 319 318 316 315 315 315 315 315 314 315 315 315 316 317 318 318 319 318 316 313 310 304 299 293 290 290 289 288 287 286 286 285 285 287 290 293 296 300 302 300 294 284 274 265 264 268 270 268 265 259 251 243 234 222 208 200 198 199 199 197 197 198 199 199 197 197 195 193 191 189 188 185 182 180 178 178 178 181 185 188 189 189 189 190